CW8198 Weather Reports


time (UTC)temp
C
wind
direction
speed
KPH
gust
KPH
rain 1hr
cm
rain 24hr
cm
rain mn
cm
humidity
%
barometer
mb
20260505041350 11 325 3.2 14.5 0.00 0.00 0.00 60 1009.4
20260505040350 11 346 8.0 17.7 0.00 0.00 0.00 56 1009.2
20260505035348 11 20 8.0 20.9 0.00 0.00 0.00 53 1009.0
20260505034849 12 334 9.7 20.9 0.00 0.00 0.00 52 1008.9
20260505033348 12 342 12.9 22.5 0.00 0.00 0.00 51 1008.6
20260505032348 12 338 9.7 24.1 0.00 0.00 0.00 50 1008.7
20260505031846 12 319 11.3 24.1 0.00 0.00 0.00 49 1008.7
20260505031346 12 26 9.7 20.9 0.00 0.00 0.00 46 1008.9
20260505030846 12 342 8.0 22.5 0.00 0.00 0.00 45 1008.8
20260505030346 13 34 11.3 25.7 0.00 0.00 0.00 44 1008.6
20260505025845 13 23 12.9 25.7 0.00 0.00 0.00 44 1008.1
20260505024845 13 40 11.3 25.7 0.00 0.00 0.00 46 1007.9
20260505024344 13 19 9.7 22.5 0.00 0.00 0.00 46 1008.3
20260505023843 13 24 9.7 25.7 0.00 0.00 0.00 46 1007.9
20260505023344 13 346 12.9 25.7 0.00 0.00 0.00 45 1007.9
20260505022843 13 11 14.5 25.7 0.00 0.00 0.00 45 1007.9
20260505021341 13 347 17.7 30.6 0.00 0.00 0.00 44 1007.7
20260505020841 13 22 16.1 33.8 0.00 0.00 0.00 43 1007.7
20260505020341 13 319 16.1 37.0 0.00 0.00 0.00 44 1007.4
20260505015840 13 348 19.3 41.8 0.00 0.00 0.00 44 1007.6
20260505015340 13 317 12.9 35.4 0.00 0.00 0.00 45 1007.4
20260505014841 14 306 16.1 32.2 0.00 0.00 0.00 45 1007.5
20260505014339 14 337 16.1 32.2 0.00 0.00 0.00 44 1007.4
20260505013839 14 15 16.1 29.0 0.00 0.00 0.00 45 1007.1
20260505013340 14 347 12.9 29.0 0.00 0.00 0.00 45 1006.9
20260505012838 15 351 16.1 25.7 0.00 0.00 0.00 43 1006.9
20260505012340 15 336 9.7 30.6 0.00 0.00 0.00 42 1006.9
20260505011838 15 11 14.5 30.6 0.00 0.00 0.00 42 1006.7
20260505011339 15 19 20.9 38.6 0.00 0.00 0.00 40 1006.7
20260505005835 16 350 17.7 37.0 0.00 0.00 0.00 40 1006.5
20260505004834 16 337 19.3 32.2 0.00 0.00 0.00 37 1006.2
20260505004335 17 29 17.7 40.2 0.00 0.00 0.00 37 1006.4
20260505003833 17 50 22.5 40.2 0.00 0.00 0.00 36 1006.3
20260505003333 17 288 14.5 27.4 0.00 0.00 0.00 37 1006.1
20260505002832 17 13 9.7 27.4 0.00 0.00 0.00 37 1005.6
20260505001832 18 347 14.5 25.7 0.00 0.00 0.00 35 1005.8
20260505001331 18 28 16.1 35.4 0.00 0.00 0.00 36 1005.6
20260505000330 19 18 16.1 30.6 0.00 0.00 0.00 36 1005.4
20260504235831 19 11 19.3 33.8 0.00 0.00 0.00 35 1005.3
20260504234831 20 26 14.5 30.6 0.00 0.00 0.00 36 1005.3
20260504234329 20 340 16.1 30.6 0.00 0.00 0.00 36 1005.2
20260504233829 20 331 14.5 27.4 0.00 0.00 0.00 35 1005.1
20260504233328 20 344 11.3 30.6 0.00 0.00 0.00 37 1005.1
20260504232828 20 34 12.9 30.6 0.00 0.00 0.00 34 1005.0
20260504232330 21 342 14.5 30.6 0.00 0.00 0.00 33 1004.9
20260504231827 21 11 14.5 32.2 0.00 0.00 0.00 33 1004.9
20260504231327 21 10 16.1 33.8 0.00 0.00 0.00 33 1004.7
20260504230828 22 334 19.3 37.0 0.00 0.00 0.00 31 1004.7
20260504225827 22 19 16.1 32.2 0.00 0.00 0.00 31 1004.5
20260504224827 22 350 19.3 35.4 0.00 0.00 0.00 33 1004.1
20260504223826 23 67 16.1 38.6 0.00 0.00 0.00 33 1003.9
20260504222825 23 350 19.3 38.6 0.00 0.00 0.00 31 1003.6
20260504222326 23 351 20.9 38.6 0.00 0.00 0.00 31 1003.5
20260504221825 23 350 20.9 38.6 0.00 0.00 0.00 31 1003.3
20260504221325 24 344 19.3 38.6 0.00 0.00 0.00 31 1003.4
20260504220824 24 316 20.9 37.0 0.00 0.00 0.00 31 1003.3
20260504220324 24 336 17.7 37.0 0.00 0.00 0.00 32 1003.2
20260504215823 24 339 20.9 37.0 0.00 0.00 0.00 30 1003.0
20260504214823 25 339 19.3 29.0 0.00 0.00 0.00 31 1003.0
20260504214323 25 342 14.5 27.4 0.00 0.00 0.00 33 1003.0
20260504213823 25 338 14.5 27.4 0.00 0.00 0.00 30 1003.0
20260504213322 25 327 14.5 27.4 0.00 0.00 0.00 33 1003.0
20260504212822 25 26 14.5 38.6 0.00 0.00 0.00 32 1003.0
20260504211821 26 336 9.7 27.4 0.00 0.00 0.00 34 1002.9
20260504211321 25 321 9.7 27.4 0.00 0.00 0.00 32 1002.7
20260504210821 26 321 16.1 27.4 0.00 0.00 0.00 34 1002.8
20260504205820 25 344 14.5 30.6 0.00 0.00 0.00 32 1002.6
20260504205320 26 347 14.5 27.4 0.00 0.00 0.00 33 1002.8
20260504204319 26 310 12.9 30.6 0.00 0.00 0.00 33 1002.5
20260504203819 26 11 11.3 30.6 0.00 0.00 0.00 34 1002.6
20260504203318 26 26 14.5 24.1 0.00 0.00 0.00 35 1002.5
20260504202818 26 23 9.7 22.5 0.00 0.00 0.00 39 1002.5
20260504202319 26 69 9.7 27.4 0.00 0.00 0.00 38 1002.4
20260504201818 26 11 9.7 27.4 0.00 0.00 0.00 38 1002.5
20260504200816 26 18 14.5 33.8 0.00 0.00 0.00 39 1002.3
20260504200316 26 9 12.9 32.2 0.00 0.00 0.00 38 1002.4
20260504195816 26 311 9.7 27.4 0.00 0.00 0.00 36 1002.4
20260504195316 26 11 12.9 33.8 0.00 0.00 0.00 38 1002.5
20260504194816 26 336 20.9 33.8 0.00 0.00 0.00 38 1002.4
20260504194315 27 342 11.3 29.0 0.00 0.00 0.00 38 1002.2
20260504193815 27 315 12.9 29.0 0.00 0.00 0.00 38 1002.2
20260504192814 27 24 14.5 27.4 0.00 0.00 0.00 38 1002.2
20260504192316 27 309 6.4 30.6 0.00 0.00 0.00 40 1002.1
20260504191314 27 279 12.9 33.8 0.00 0.00 0.00 35 1002.0
20260504190814 27 314 11.3 25.7 0.00 0.00 0.00 34 1002.0
20260504190313 27 317 8.0 30.6 0.00 0.00 0.00 36 1001.9
20260504185813 27 269 11.3 30.6 0.00 0.00 0.00 35 1001.8
20260504185313 27 319 9.7 20.9 0.00 0.00 0.00 35 1001.8
20260504184813 27 337 11.3 24.1 0.00 0.00 0.00 35 1001.8
20260504184312 27 284 12.9 32.2 0.00 0.00 0.00 36 1001.7
20260504183812 28 15 17.7 32.2 0.00 0.00 0.00 33 1001.7
20260504183312 28 314 6.4 24.1 0.00 0.00 0.00 31 1001.7
20260504182812 28 300 9.7 24.1 0.00 0.00 0.00 32 1001.6
20260504182313 28 342 12.9 22.5 0.00 0.00 0.00 32 1001.6
20260504181812 28 325 11.3 20.9 0.00 0.00 0.00 32 1001.6
20260504181312 28 351 8.0 25.7 0.00 0.00 0.00 34 1001.5
20260504180811 28 324 9.7 25.7 0.00 0.00 0.00 33 1001.6
20260504180311 28 32 9.7 29.0 0.00 0.00 0.00 31 1001.5
20260504175811 28 321 14.5 29.0 0.00 0.00 0.00 33 1001.6
20260504174310 28 22 8.0 22.5 0.00 0.00 0.00 32 1001.6
20260504173810 27 317 9.7 27.4 0.00 0.00 0.00 33 1001.6
20260504172809 27 300 8.0 24.1 0.00 0.00 0.00 35 1001.7
20260504172310 27 302 9.7 24.1 0.00 0.00 0.00 34 1001.7
20260504171809 27 309 8.0 20.9 0.00 0.00 0.00 34 1001.7
20260504171309 27 242 11.3 20.9 0.00 0.00 0.00 37 1001.9
20260504170809 27 9 11.3 19.3 0.00 0.00 0.00 35 1001.9
20260504170309 27 279 8.0 29.0 0.00 0.00 0.00 35 1001.9
20260504150302 21 259 4.8 17.7 0.00 0.00 0.00 47 1002.0
20260504141259 18 238 1.6 9.7 0.00 0.00 0.00 64 1002.4
20260504140800 17 331 3.2 9.7 0.00 0.00 0.00 66 1002.5
20260504140258 16 265 1.6 8.0 0.00 0.00 0.00 71 1002.5
20260504130755 8 269 3.2 4.8 0.00 0.00 0.00 90 1002.7
20260504130254 8 309 3.2 4.8 0.00 0.00 0.00 90 1002.8
20260504120246 6 291 0.0 1.6 0.00 0.00 0.00 89 1002.2
20260504100214 6 111 0.0 1.6 0.00 0.00 0.00 88 1002.6
20260504081150 7 51 0.0 1.6 0.00 0.00 0.00 85 1003.9
20260504080644 7 34 0.0 1.6 0.00 0.00 0.00 85 1003.9
20260504080144 7 9 0.0 1.6 0.00 0.00 0.00 85 1004.0
20260504070127 8 334 0.0 3.2 0.00 0.00 0.00 82 1005.0
20260504060118 9 9 1.6 3.2 0.00 0.00 0.00 78 1005.8
20260504050606 11 146 1.6 1.6 0.00 0.00 0.00 74 1006.4
20260504050106 11 178 0.0 1.6 0.00 0.00 0.00 73 1006.5
20260504045608 11 51 0.0 1.6 0.00 0.00 0.00 72 1006.5
20260504045105 11 319 1.6 1.6 0.00 0.00 0.00 72 1006.4
20260504044606 11 265 0.0 1.6 0.00 0.00 0.00 72 1006.5
20260504043605 12 309 1.6 4.8 0.00 0.00 0.00 71 1006.6
20260504043105 12 129 1.6 3.2 0.00 0.00 0.00 71 1006.6
20260504042605 12 9 1.6 3.2 0.00 0.00 0.00 71 1006.7
20260504042104 12 119 0.0 3.2 0.00 0.00 0.00 71 1006.7